Wetterdaten: Dienstag, 13.03.2018
Datum Zeit Außen Temp. Server Temp. +20m Feuchte Feuchte +20m Luftdruck Regen Wind Richtung Richtung Sonnenschein Helligkeit Solar Taupunkt
13.03.2018 00:00 7,8 °C 16,3 °C 8,1 °C 79 % 52 % 995,7 hPa 0,00 l/m² 13,3 km/h (3 Bft) SW±45° 235 ° 0 min 0 lux 0 W/m² 4,4 °C
13.03.2018 00:15 7,9 °C 16,2 °C 8,2 °C 79 % 52 % 995,7 hPa 0,00 l/m² 14,7 km/h (3 Bft) W-SW±45° 240 ° 0 min 0 lux 0 W/m² 4,5 °C
13.03.2018 00:30 8,1 °C 16,2 °C 8,3 °C 79 % 51 % 995,7 hPa 0,00 l/m² 14,9 km/h (3 Bft) SW±45° 230 ° 0 min 0 lux 0 W/m² 4,7 °C
13.03.2018 00:45 8,0 °C 16,1 °C 8,3 °C 79 % 51 % 995,7 hPa 0,00 l/m² 15,0 km/h (3 Bft) SW±45° 235 ° 0 min 0 lux 0 W/m² 4,6 °C
13.03.2018 01:00 7,9 °C 16,1 °C 8,1 °C 79 % 51 % 995,7 hPa 0,00 l/m² 13,0 km/h (3 Bft) S-SW±45° 210 ° 0 min 0 lux 0 W/m² 4,5 °C
13.03.2018 01:15 7,7 °C 16,0 °C 7,9 °C 79 % 52 % 995,8 hPa 0,00 l/m² 8,5 km/h (2 Bft) S±45° 190 ° 0 min 0 lux 0 W/m² 4,3 °C
13.03.2018 01:30 7,6 °C 16,0 °C 7,7 °C 79 % 53 % 995,8 hPa 0,00 l/m² 9,4 km/h (2 Bft) S-SW±45° 205 ° 0 min 0 lux 0 W/m² 4,2 °C
13.03.2018 01:45 7,7 °C 16,0 °C 7,9 °C 79 % 53 % 995,8 hPa 0,00 l/m² 12,5 km/h (3 Bft) SW±45° 220 ° 0 min 0 lux 0 W/m² 4,3 °C
13.03.2018 02:00 7,7 °C 16,0 °C 8,0 °C 79 % 51 % 995,8 hPa 0,00 l/m² 14,3 km/h (3 Bft) SW±22.5° 230 ° 0 min 0 lux 0 W/m² 4,3 °C
13.03.2018 02:15 7,7 °C 16,0 °C 8,0 °C 79 % 51 % 996,8 hPa 0,00 l/m² 10,5 km/h (2 Bft) SW±45° 220 ° 0 min 0 lux 0 W/m² 4,3 °C
13.03.2018 02:30 7,7 °C 15,9 °C 8,0 °C 79 % 50 % 996,8 hPa 0,00 l/m² 11,7 km/h (2 Bft) SW±45° 230 ° 0 min 0 lux 0 W/m² 4,3 °C
13.03.2018 02:45 7,7 °C 15,9 °C 8,0 °C 79 % 50 % 996,8 hPa 0,00 l/m² 13,7 km/h (3 Bft) S-SW±67.5 210 ° 0 min 0 lux 0 W/m² 4,3 °C
13.03.2018 03:00 7,7 °C 15,8 °C 8,0 °C 79 % 50 % 996,8 hPa 0,00 l/m² 15,2 km/h (3 Bft) W-SW±45° 245 ° 0 min 0 lux 0 W/m² 4,3 °C
13.03.2018 03:15 7,7 °C 15,7 °C 8,0 °C 79 % 49 % 996,8 hPa 0,00 l/m² 18,5 km/h (3 Bft) W-SW±45° 255 ° 0 min 0 lux 0 W/m² 4,3 °C
13.03.2018 03:30 7,7 °C 15,7 °C 8,0 °C 79 % 49 % 996,8 hPa 0,00 l/m² 13,3 km/h (3 Bft) SW±45° 235 ° 0 min 0 lux 0 W/m² 4,3 °C
13.03.2018 03:45 7,7 °C 15,7 °C 8,1 °C 79 % 48 % 996,8 hPa 0,00 l/m² 12,7 km/h (3 Bft) W-SW±22.5 240 ° 0 min 0 lux 0 W/m² 4,3 °C
13.03.2018 04:00 7,8 °C 15,7 °C 8,1 °C 79 % 48 % 996,8 hPa 0,00 l/m² 14,4 km/h (3 Bft) W-SW±67.5 250 ° 0 min 0 lux 0 W/m² 4,4 °C
13.03.2018 04:15 7,8 °C 15,6 °C 8,1 °C 79 % 48 % 996,8 hPa 0,00 l/m² 14,9 km/h (3 Bft) W-SW±45° 250 ° 0 min 0 lux 0 W/m² 4,4 °C
13.03.2018 04:30 7,8 °C 15,6 °C 8,0 °C 79 % 49 % 996,8 hPa 0,00 l/m² 15,0 km/h (3 Bft) W-SW±45° 255 ° 0 min 0 lux 0 W/m² 4,4 °C
13.03.2018 04:45 7,6 °C 15,6 °C 8,0 °C 79 % 49 % 996,8 hPa 0,00 l/m² 13,4 km/h (3 Bft) W-SW±22.5 255 ° 0 min 0 lux 0 W/m² 4,2 °C
13.03.2018 05:00 7,5 °C 15,6 °C 7,9 °C 79 % 50 % 996,8 hPa 0,00 l/m² 13,0 km/h (3 Bft) SW±67.5° 230 ° 0 min 0 lux 0 W/m² 4,1 °C
13.03.2018 05:15 7,6 °C 15,5 °C 7,9 °C 79 % 49 % 996,8 hPa 0,00 l/m² 14,3 km/h (3 Bft) W-SW±45° 250 ° 0 min 0 lux 0 W/m² 4,2 °C
13.03.2018 05:30 7,5 °C 15,5 °C 7,8 °C 79 % 51 % 996,8 hPa 0,00 l/m² 15,5 km/h (3 Bft) W-SW±67.5 245 ° 0 min 0 lux 0 W/m² 4,1 °C
13.03.2018 05:45 7,4 °C 15,5 °C 7,8 °C 79 % 52 % 996,8 hPa 0,00 l/m² 13,3 km/h (3 Bft) W-SW±45° 245 ° 0 min 0 lux 0 W/m² 4,0 °C
13.03.2018 06:00 7,4 °C 15,5 °C 7,7 °C 79 % 52 % 996,8 hPa 0,00 l/m² 17,9 km/h (3 Bft) W-SW±45° 255 ° 0 min 0 lux 0 W/m² 4,0 °C
13.03.2018 06:15 7,4 °C 15,4 °C 7,8 °C 79 % 53 % 996,8 hPa 0,05 l/m² 14,9 km/h (3 Bft) W-SW±45° 250 ° 0 min 0 lux 0 W/m² 4,0 °C
13.03.2018 06:30 7,4 °C 15,4 °C 7,7 °C 79 % 54 % 997,8 hPa 0,00 l/m² 17,6 km/h (3 Bft) W-SW±45° 250 ° 0 min 62 lux 0 W/m² 4,0 °C
13.03.2018 06:45 7,4 °C 15,4 °C 7,7 °C 79 % 53 % 997,8 hPa 0,00 l/m² 20,1 km/h (4 Bft) W±67.5° 265 ° 0 min 199 lux 1 W/m² 4,0 °C
13.03.2018 07:00 7,3 °C 15,3 °C 7,6 °C 79 % 53 % 997,9 hPa 0,00 l/m² 19,6 km/h (3 Bft) W±45° 265 ° 0 min 377 lux 2 W/m² 3,9 °C
13.03.2018 07:15 7,3 °C 15,3 °C 7,5 °C 79 % 53 % 997,9 hPa 0,00 l/m² 17,8 km/h (3 Bft) W±45° 260 ° 0 min 1,20 klux 8 W/m² 3,9 °C
13.03.2018 07:30 7,3 °C 15,3 °C 7,5 °C 79 % 54 % 997,9 hPa 0,00 l/m² 15,8 km/h (3 Bft) W-SW±67.5 240 ° 0 min 1,25 klux 8 W/m² 3,9 °C
13.03.2018 07:30 7,3 °C 15,3 °C 7,5 °C 79 % 54 % 997,9 hPa 0,00 l/m² 15,8 km/h (3 Bft) W-SW±67.5 240 ° 0 min 1,25 klux 8 W/m² 3,9 °C
13.03.2018 07:45 7,2 °C 15,3 °C 7,4 °C 79 % 54 % 997,9 hPa 0,00 l/m² 12,2 km/h (2 Bft) W-SW±67.5 240 ° 0 min 1,48 klux 10 W/m² 3,8 °C
13.03.2018 08:00 7,3 °C 15,2 °C 7,5 °C 79 % 54 % 998,9 hPa 0,00 l/m² 17,1 km/h (3 Bft) W-SW±67.5 245 ° 0 min 1,73 klux 11 W/m² 3,9 °C
13.03.2018 08:15 7,3 °C 15,2 °C 7,5 °C 79 % 54 % 998,9 hPa 0,00 l/m² 14,6 km/h (3 Bft) SW±67.5° 225 ° 0 min 1,63 klux 11 W/m² 3,9 °C
13.03.2018 08:30 7,4 °C 15,2 °C 7,5 °C 79 % 54 % 998,9 hPa 0,00 l/m² 12,5 km/h (3 Bft) SW±45° 230 ° 0 min 1,70 klux 11 W/m² 4,0 °C
13.03.2018 08:45 7,5 °C 15,2 °C 7,6 °C 79 % 54 % 998,9 hPa 0,00 l/m² 13,4 km/h (3 Bft) SW±45° 225 ° 0 min 2,97 klux 19 W/m² 4,1 °C
13.03.2018 09:00 7,5 °C 15,1 °C 7,8 °C 79 % 53 % 998,9 hPa 0,00 l/m² 13,1 km/h (3 Bft) SW±67.5° 215 ° 0 min 4,56 klux 30 W/m² 4,1 °C
13.03.2018 09:16 7,9 °C 15,1 °C 8,0 °C 79 % 51 % 998,8 hPa 0,00 l/m² 15,4 km/h (3 Bft) SW±45° 235 ° 0 min 6,61 klux 43 W/m² 4,5 °C
13.03.2018 09:30 8,0 °C 15,1 °C 8,1 °C 79 % 50 % 998,8 hPa 0,00 l/m² 13,0 km/h (3 Bft) SW±45° 225 ° 0 min 6,41 klux 42 W/m² 4,6 °C
13.03.2018 09:45 8,0 °C 15,1 °C 8,2 °C 79 % 50 % 998,8 hPa 0,00 l/m² 18,6 km/h (3 Bft) W±45° 260 ° 0 min 7,10 klux 46 W/m² 4,6 °C
13.03.2018 10:00 8,1 °C 15,1 °C 8,4 °C 79 % 49 % 998,8 hPa 0,00 l/m² 15,8 km/h (3 Bft) SW±45° 235 ° 0 min 8,49 klux 55 W/m² 4,7 °C
13.03.2018 10:15 8,3 °C 15,1 °C 8,6 °C 78 % 48 % 998,8 hPa 0,00 l/m² 23,3 km/h (4 Bft) W±45° 280 ° 0 min 8,24 klux 54 W/m² 4,7 °C
13.03.2018 10:30 8,3 °C 15,1 °C 8,5 °C 79 % 48 % 999,8 hPa 0,00 l/m² 24,5 km/h (4 Bft) W-NW±45° 285 ° 0 min 8,60 klux 56 W/m² 4,9 °C
13.03.2018 10:45 8,2 °C 15,1 °C 8,5 °C 79 % 48 % 999,8 hPa 0,00 l/m² 20,5 km/h (4 Bft) W-NW±45° 290 ° 0 min 8,17 klux 53 W/m² 4,8 °C
13.03.2018 11:00 8,3 °C 15,1 °C 8,5 °C 78 % 48 % 999,8 hPa 0,00 l/m² 19,2 km/h (3 Bft) W±45° 265 ° 0 min 5,92 klux 39 W/m² 4,7 °C
13.03.2018 11:15 8,5 °C 15,1 °C 8,7 °C 78 % 47 % 999,8 hPa 0,00 l/m² 20,0 km/h (4 Bft) W±45° 270 ° 0 min 9,2 klux 60 W/m² 4,9 °C
13.03.2018 11:30 8,8 °C 15,1 °C 9,0 °C 77 % 46 % 999,8 hPa 0,00 l/m² 27,1 km/h (4 Bft) W±45° 280 ° 0 min 13,3 klux 87 W/m² 5,0 °C
13.03.2018 11:45 9,0 °C 15,1 °C 9,2 °C 76 % 46 % 999,7 hPa 0,00 l/m² 19,5 km/h (3 Bft) W±67.5° 270 ° 0 min 14,5 klux 94 W/m² 5,0 °C
13.03.2018 12:00 9,1 °C 15,1 °C 9,2 °C 76 % 45 % 999,7 hPa 0,00 l/m² 19,5 km/h (3 Bft) W±45° 280 ° 0 min 12,7 klux 83 W/m² 5,1 °C
13.03.2018 12:15 9,2 °C 15,1 °C 9,2 °C 76 % 45 % 999,7 hPa 0,00 l/m² 24,2 km/h (4 Bft) W±67.5° 270 ° 0 min 12,1 klux 79 W/m² 5,2 °C
13.03.2018 12:30 9,3 °C 15,1 °C 9,3 °C 75 % 45 % 999,7 hPa 0,00 l/m² 21,4 km/h (4 Bft) W-NW±45° 285 ° 0 min 12,5 klux 81 W/m² 5,1 °C
13.03.2018 12:45 9,3 °C 15,1 °C 9,6 °C 75 % 45 % 999,7 hPa 0,00 l/m² 19,6 km/h (3 Bft) W-NW±45° 285 ° 0 min 16,0 klux 104 W/m² 5,1 °C
13.03.2018 13:00 9,5 °C 15,2 °C 9,6 °C 74 % 45 % 999,7 hPa 0,00 l/m² 19,6 km/h (3 Bft) W±67.5° 270 ° 0 min 12,7 klux 83 W/m² 5,1 °C
13.03.2018 13:15 9,5 °C 15,2 °C 9,6 °C 74 % 45 % 999,7 hPa 0,00 l/m² 19,2 km/h (3 Bft) W±45° 275 ° 0 min 11,7 klux 76 W/m² 5,1 °C
13.03.2018 13:30 9,4 °C 15,2 °C 9,6 °C 74 % 45 % 999,7 hPa 0,00 l/m² 22,7 km/h (4 Bft) W±67.5° 270 ° 0 min 11,9 klux 78 W/m² 5,0 °C
13.03.2018 13:45 9,4 °C 15,2 °C 9,5 °C 75 % 45 % 999,7 hPa 0,00 l/m² 22,5 km/h (4 Bft) W±67.5° 280 ° 0 min 10,2 klux 66 W/m² 5,2 °C
13.03.2018 14:00 9,0 °C 15,2 °C 9,4 °C 77 % 47 % 999,7 hPa 0,22 l/m² 19,1 km/h (3 Bft) W-NW±45° 285 ° 0 min 13,4 klux 87 W/m² 5,2 °C
13.03.2018 14:15 8,9 °C 15,2 °C 9,3 °C 78 % 48 % 999,7 hPa 0,17 l/m² 17,1 km/h (3 Bft) W±45° 280 ° 0 min 11,5 klux 75 W/m² 5,3 °C
13.03.2018 14:30 8,9 °C 15,2 °C 9,3 °C 78 % 48 % 999,7 hPa 0,11 l/m² 17,1 km/h (3 Bft) W±45° 260 ° 0 min 8,92 klux 58 W/m² 5,3 °C
13.03.2018 14:45 9,1 °C 15,2 °C 9,4 °C 77 % 48 % 1000,8 hPa 0,00 l/m² 22,0 km/h (4 Bft) W-NW±45° 285 ° 0 min 10,3 klux 67 W/m² 5,3 °C
13.03.2018 15:00 8,9 °C 15,2 °C 9,1 °C 78 % 49 % 1000,8 hPa 0,00 l/m² 18,4 km/h (3 Bft) W±45° 265 ° 0 min 8,53 klux 56 W/m² 5,3 °C
13.03.2018 15:15 8,3 °C 15,2 °C 8,7 °C 78 % 51 % 1000,8 hPa 0,50 l/m² 17,3 km/h (3 Bft) W±45° 265 ° 0 min 4,20 klux 27 W/m² 4,7 °C
13.03.2018 15:30 8,1 °C 15,2 °C 8,4 °C 79 % 52 % 1000,9 hPa 0,05 l/m² 21,5 km/h (4 Bft) W±67.5° 270 ° 0 min 5,37 klux 35 W/m² 4,7 °C
13.03.2018 15:45 7,9 °C 15,2 °C 8,2 °C 79 % 53 % 1000,9 hPa 0,00 l/m² 15,5 km/h (3 Bft) W±45° 265 ° 0 min 5,34 klux 35 W/m² 4,5 °C
13.03.2018 16:00 7,4 °C 15,2 °C 7,5 °C 79 % 56 % 1000,9 hPa 0,22 l/m² 19,7 km/h (3 Bft) N-NW±22.5 340 ° 0 min 5,21 klux 34 W/m² 4,0 °C
13.03.2018 16:15 7,6 °C 15,2 °C 7,7 °C 80 % 57 % 1001,9 hPa 0,11 l/m² 8,5 km/h (2 Bft) NW±22.5° 325 ° 0 min 7,17 klux 47 W/m² 4,4 °C
13.03.2018 16:30 7,6 °C 15,1 °C 7,9 °C 80 % 57 % 1001,9 hPa 0,00 l/m² 0,0 km/h (0 Bft) W-NW 300 ° 0 min 5,03 klux 33 W/m² 4,4 °C
13.03.2018 16:45 7,7 °C 15,1 °C 7,9 °C 79 % 55 % 1001,9 hPa 0,00 l/m² 0,7 km/h (0 Bft) W-NW 295 ° 0 min 4,82 klux 31 W/m² 4,3 °C
13.03.2018 17:00 7,6 °C 15,1 °C 7,9 °C 79 % 54 % 1001,9 hPa 0,00 l/m² 9,7 km/h (2 Bft) W-NW±45° 285 ° 0 min 3,18 klux 21 W/m² 4,2 °C
13.03.2018 17:15 7,3 °C 15,1 °C 7,6 °C 79 % 52 % 1002,0 hPa 0,05 l/m² 11,2 km/h (2 Bft) NW±22.5° 325 ° 0 min 1,81 klux 12 W/m² 3,9 °C
13.03.2018 17:30 7,2 °C 15,1 °C 7,4 °C 79 % 53 % 1002,0 hPa 0,05 l/m² 10,9 km/h (2 Bft) NW±22.5° 320 ° 0 min 668 lux 4 W/m² 3,8 °C
13.03.2018 17:45 6,7 °C 15,1 °C 7,0 °C 80 % 56 % 1003,1 hPa 0,05 l/m² 17,6 km/h (3 Bft) NW±22.5° 325 ° 0 min 446 lux 3 W/m² 3,5 °C
13.03.2018 18:00 6,5 °C 15,0 °C 6,9 °C 81 % 58 % 1003,1 hPa 0,05 l/m² 13,0 km/h (3 Bft) NW±22.5° 315 ° 0 min 329 lux 2 W/m² 3,5 °C
13.03.2018 18:15 6,4 °C 15,0 °C 6,3 °C 82 % 61 % 1003,1 hPa 0,11 l/m² 12,5 km/h (3 Bft) NW±22.5° 325 ° 0 min 104 lux 0 W/m² 3,6 °C
13.03.2018 18:30 5,3 °C 15,0 °C 4,9 °C 82 % 69 % 1004,3 hPa 0,22 l/m² 5,9 km/h (2 Bft) W±67.5° 280 ° 0 min 26 lux 0 W/m² 2,5 °C
13.03.2018 18:45 4,6 °C 14,9 °C 4,4 °C 83 % 86 % 1004,3 hPa 0,28 l/m² 7,2 km/h (2 Bft) NW±67.5° 315 ° 0 min 16 lux 0 W/m² 2,0 °C
13.03.2018 19:00 4,1 °C 14,8 °C 4,1 °C 83 % 87 % 1005,4 hPa 0,11 l/m² 8,2 km/h (2 Bft) W±67.5° 275 ° 0 min 0 lux 0 W/m² 1,5 °C
13.03.2018 19:15 3,8 °C 14,8 °C 3,7 °C 83 % 90 % 1005,5 hPa 0,17 l/m² 6,7 km/h (2 Bft) W-SW±67.5 245 ° 0 min 0 lux 0 W/m² 1,2 °C
13.03.2018 19:30 3,4 °C 14,7 °C 3,3 °C 83 % 89 % 1006,5 hPa 0,11 l/m² 8,2 km/h (2 Bft) W±67.5° 270 ° 0 min 0 lux 0 W/m² 0,8 °C
13.03.2018 19:45 3,0 °C 14,6 °C 2,9 °C 83 % 86 % 1006,6 hPa 0,22 l/m² 7,7 km/h (2 Bft) W±45° 265 ° 0 min 0 lux 0 W/m² 0,4 °C
13.03.2018 20:00 2,6 °C 14,5 °C 2,7 °C 83 % 83 % 1006,6 hPa 0,05 l/m² 8,0 km/h (2 Bft) W-SW±67.5 255 ° 0 min 0 lux 0 W/m² 0,0 °C
13.03.2018 20:15 2,6 °C 14,4 °C 2,6 °C 83 % 86 % 1007,7 hPa 0,05 l/m² 0,6 km/h (0 Bft) W-NW±45° 285 ° 0 min 0 lux 0 W/m² 0,0 °C
13.03.2018 20:30 2,6 °C 14,3 °C 2,6 °C 83 % 89 % 1007,7 hPa 0,05 l/m² 0,6 km/h (0 Bft) W-SW±22.5 240 ° 0 min 0 lux 0 W/m² 0,0 °C
13.03.2018 20:45 2,5 °C 14,2 °C 2,6 °C 83 % 89 % 1007,7 hPa 0,11 l/m² 0,3 km/h (0 Bft) NW±67.5° 325 ° 0 min 0 lux 0 W/m² -0,1 °C
13.03.2018 21:00 2,4 °C 14,2 °C 2,4 °C 83 % 87 % 1007,7 hPa 0,28 l/m² 0,6 km/h (0 Bft) W-NW±67.5 285 ° 0 min 0 lux 0 W/m² -0,2 °C
13.03.2018 21:15 2,4 °C 14,1 °C 2,4 °C 84 % 90 % 1008,7 hPa 0,17 l/m² 0,6 km/h (0 Bft) N-NW±22.5 335 ° 0 min 0 lux 0 W/m² -0,0 °C
13.03.2018 21:30 2,3 °C 14,1 °C 2,3 °C 84 % 92 % 1008,7 hPa 0,11 l/m² 9,6 km/h (2 Bft) N-NW 345 ° 0 min 0 lux 0 W/m² -0,1 °C
13.03.2018 21:45 2,3 °C 14,0 °C 2,3 °C 84 % 92 % 1008,7 hPa 0,11 l/m² 1,1 km/h (1 Bft) N-NW 335 ° 0 min 0 lux 0 W/m² -0,1 °C
13.03.2018 22:00 2,3 °C 14,0 °C 2,4 °C 84 % 92 % 1008,7 hPa 0,00 l/m² 9,2 km/h (2 Bft) N-NW±22.5 335 ° 0 min 0 lux 0 W/m² -0,1 °C
13.03.2018 22:15 2,3 °C 13,9 °C 2,4 °C 85 % 92 % 1008,7 hPa 0,05 l/m² 7,8 km/h (2 Bft) N-NW±22.5 340 ° 0 min 0 lux 0 W/m² 0,0 °C
13.03.2018 22:30 2,5 °C 13,9 °C 2,6 °C 85 % 92 % 1008,7 hPa 0,00 l/m² 10,8 km/h (2 Bft) N-NW±22.5 330 ° 0 min 0 lux 0 W/m² 0,2 °C
13.03.2018 22:45 2,6 °C 14,0 °C 2,7 °C 85 % 92 % 1009,7 hPa 0,00 l/m² 12,3 km/h (3 Bft) NW±22.5° 325 ° 0 min 0 lux 0 W/m² 0,3 °C
13.03.2018 23:00 2,7 °C 13,9 °C 2,8 °C 85 % 92 % 1009,7 hPa 0,00 l/m² 10,3 km/h (2 Bft) N-NW±22.5 330 ° 0 min 0 lux 0 W/m² 0,4 °C
13.03.2018 23:15 2,8 °C 13,9 °C 2,9 °C 85 % 92 % 1009,7 hPa 0,00 l/m² 12,7 km/h (3 Bft) N-NW±22.5 330 ° 0 min 0 lux 0 W/m² 0,5 °C
13.03.2018 23:30 2,8 °C 13,9 °C 2,9 °C 85 % 92 % 1009,7 hPa 0,00 l/m² 14,4 km/h (3 Bft) N-NW±22.5 330 ° 0 min 0 lux 0 W/m² 0,5 °C
13.03.2018 23:45 2,8 °C 13,9 °C 3,0 °C 84 % 92 % 1009,7 hPa 0,00 l/m² 15,5 km/h (3 Bft) NW±22.5° 325 ° 0 min 0 lux 0 W/m² 0,4 °C
_ Min-Zeit 21:30 22:15 21:30 13:00 12:00 00:30 - 16:30 - - - - - 21:00
Minimum _ 2,3 °C 13,9 °C 2,3 °C 74 % 45 % 995,7 hPa - 0,0 km/h (0 Bft) - - - - - -0,2 °C
_ Max-Zeit 13:00 00:00 12:45 22:15 21:30 22:45 15:15 11:30 - - 00:00 12:45 12:45 14:45
Maximum _ 9,5 °C 16,3 °C 9,6 °C 85 % 92 % 1009,7 hPa 0,50 l/m² 27,1 km/h
W (4 Bft)
- - 0 min 16,0 klux 104 W/m² 5,3 °C
Durchschnitt _ 6,8 °C 15,1 °C 7,0 °C 80 % 59 % 1000,8 hPa #3,85 l/m² 13,8 km/h (3 Bft) W - #0 min. 3,21 klux 43 W/m² 3,5 °C